COSMOS 2251 DEB, 34556

Orbit data source: Space-Track

COSMOS 2251 DEB, 34556 is space debris in LEO originally from a launch on Wed, 16 Jun 1993 UTC launched from the Plesetsk Missile And Space Complex (PKMTR). The debris from Iridium 33, an American commercial communications satellite, has been tracked extensively since its accidental collision with the defunct Russian satellite Cosmos 2251 in 2009. This event, occurring at high speed in low Earth orbit (LEO), generated thousands of pieces of space debris, significantly increasing the risk of further collisions. The Iridium 33 debris cloud has impacted space traffic management and orbital debris mitigation strategies, making it a subject of ongoing study in space situational awareness.

Loading next visibility...
Identifier
34556, 1993-036US
Orbit
LEO
Country
Flag of CISCIS
Related business
Manufacturer
Unknown
Mission
Spacecraft
Bus & Motor
Unknown
Mass
Unknown
Launch date (UTC)
1993-06-16 (33 years ago)
Launch vehicle
Unknown
Launch site
Plesetsk Missile And Space Complex (PKMTR)
Object type
Payload
Rocket body
Debris
Shape & HBR
Unknown shape, 0.1 m
Radar Cross Section
Small (<0.1 m²)

Expand to show TLE details & history
Last TLE update: 2 days ago

TLE from 2 days ago
0 COSMOS 2251 DEB
1 34556U 93036US  26171.31179272  .00011033  00000-0  13367-2 0  9993
2 34556  74.0133 110.3726 0008646 147.6997   8.7445 14.83671879911351
Epoch: 2026-06-20T07:28Z
TLE epoch observation values (Epoch: 2026-06-20T07:28:58.891Z)
Latitude
22.60285°
Longitude
-97.21373°
Altitude
614.264 km
Speed
7.557 km/s
True Right ascension
18h 54m 14s
True Declination
22° 28' 43"
Sunlit
Object was in full shadow at epoch
Visualization orbit readout
Latitude
Unknown
Longitude
Unknown
Altitude
Unknown
Speed
Unknown
Apparent Right ascension
Unknown
Apparent Declination
Unknown
Sunlit
N/A
Visualization observer readout
Local Sidereal Time
04:23:24
Azimuth
Unknown
Elevation
Unknown
Doppler factor
Unknown
Orbital elements
Apogee altitude
621.378 km
Perigee altitude
609.285 km
Semi-major axis
6,993.468 km
Eccentricity
0.00086
Inclination
74.0133°
RAAN
110.3726°
Arg. of periapsis
147.6997°
True anomaly
8.75958°
Mean anomaly
8.7445°
Eccentric anomaly
8.75204°
Mean motion
3.71111 °/min
Orbital period
97.01 mins
BSTAR
0.0013367
Loading maneuver chart data...
Computing Atmospheric mass density...

Documentation

Showing up to 5 results
|